Preview of NWS' New Version of Forecast
This preview is not operational and should not be used for support decisions.
Latest weather observations around

Hartford, Hartford-Brainard Airport (KHFD)

Using English Units (Switch to International System of Units)
Date/ Time (EDT) Wind (mph) Vis. (mi) Weather Sky Cond. Temp (°F) Rel. Humidity Wind Chill (°F) Heat Index (°F) Pressure Precip. (in)
Air Dwpt 6 hour Altimeter (inHg) Sea level (inHg) 1 hr 3 hr 6 hr
Max Min
Sep 21 16:53 SE 3 10 Clear CLR 83 57     41%   82 30.13 30.12      
Sep 21 15:53 SSW 5 10 Clear CLR 83 57     41%   82 30.13 30.13      
Sep 21 14:53 WSW 6 10 Clear CLR 83 58     43%   83 30.15 30.15      
Sep 21 13:53 Calm 10 Clear CLR 80 57     45%   80 30.16 30.16      
Sep 21 12:53 3 10 Clear CLR 78 57     48%   78 30.19 30.19      
Sep 21 11:53 N 7 10 Clear CLR 75 55     50%   75 30.21 30.2      
Sep 21 10:53 Calm 10 Clear CLR 70 54     57%     30.23 30.22      
Sep 21 09:53 N 5 10 Clear CLR 66 53     63%     30.23 30.22      
Sep 21 08:53 N 5 10 Clear CLR 61 52     72%     30.23 30.22      
Sep 21 07:53 Calm 9 Clear CLR 56 53     90%     30.22 30.22      
Sep 21 06:53 Calm 10 Clear CLR 52 50     93%     30.2 30.2      
Sep 21 05:53 Calm 9 Clear CLR 53 51     93%     30.19 30.18      
Sep 21 05:25 Calm 3 Fog/Mist FEW002 52 51     97%     30.18        
Sep 21 04:53 Calm 5 Fog/Mist CLR 53 51     93%     30.19 30.19      
Sep 21 03:53 Calm 10 Clear CLR 54 52     93%     30.18 30.18      
Sep 21 02:53 Calm 10 Clear CLR 55 53     93%     30.17 30.17      
Sep 21 01:53 Calm 10 Clear CLR 55 53     93%     30.16 30.15      
Sep 21 00:53 S 3 10 Clear CLR 57 54     89%     30.16 30.15      
Sep 20 23:53 Calm 10 Clear CLR 58 54     87%     30.15 30.15      
Sep 20 22:53 Calm 10 Clear CLR 59 55     87%     30.16 30.16      
Sep 20 21:53 Calm 10 Clear CLR 60 55     83%     30.16 30.16      
Sep 20 20:53 Calm 10 Clear CLR 61 55     81%     30.15 30.15      
Sep 20 19:53 Calm 10 Clear   66 52     61%     30.14 30.14      
Sep 20 18:53 WNW 5 10 Clear CLR 75 47     37%   74 30.13 30.12      
Sep 20 17:53 WNW 8 10 Clear   78 46     32%   77 30.12 30.11      
Sep 20 16:53 WNW 8 10 Clear CLR 79 48     34%   78 30.11 30.11      
Sep 20 15:53 W 6 10 Clear CLR 80 46     30%   79 30.12 30.11      
Sep 20 14:53 SE 3 10 Clear CLR 78 46     32%   77 30.13 30.12      
Sep 20 13:53 SSE 3 10 Clear CLR 76 47     36%   75 30.14 30.14      
Sep 20 12:53 5 10 Clear CLR 73 51     46%   72 30.17 30.17      
Sep 20 11:53 ESE 5 10 Clear CLR 68 50     53%     30.21 30.2      
Sep 20 10:53 Calm 10 Clear CLR 63 50     63%     30.23 30.23      
Sep 20 09:53 Calm 10 Clear CLR 55 48     77%     30.25 30.25      
Sep 20 08:53 Calm 7 Partly Cloudy SCT002 49 48     97%     30.26 30.26      
Sep 20 08:46 Calm 4 Fog/Mist BKN002 48 48     100%     30.27        
Sep 20 08:32 Calm 2 Fog/Mist OVC002 47 46     97%     30.26        
Sep 20 07:53 SSW 3 0.25 Fog VV002 46 46     100% 45   30.26 30.26      
Sep 20 07:40 Calm 0.25 Fog VV003 46 45     96%     30.25        
Sep 20 07:34 Calm 2 Fog/Mist BKN004 45 45     100%     30.25        
Sep 20 07:16 Calm 0.25 Fog BKN004 44 43     96%     30.25        
Sep 20 07:07 Calm 0.25 Fog VV003 44 43     96%     30.25        
Sep 20 07:04 Calm 0.25 Fog   44 43     96%     30.25        
Sep 20 06:53 Calm 0.25 Fog VV001 44 43     96%     30.24 30.24      
Sep 20 05:53 Calm 0.25 Fog VV002 45 44     97%     30.23 30.23      
Sep 20 04:53 Calm 0.25 Fog VV002 46 44     93%     30.23 30.23      
Sep 20 04:43 Calm 0.25 Fog VV002 46 44     93%     30.23        
Sep 20 04:35 Calm 1.5 Fog/Mist OVC002 45 43     93%     30.23        
Sep 20 04:24 Calm 4 Fog/Mist OVC001 46 44     93%     30.23        
Sep 20 04:04 Calm 0.5 Fog VV002 45 44     97%     30.23        
Sep 20 03:53 Calm 1.5 Fog/Mist BKN001 46 44     93%     30.23 30.22      
Sep 20 03:48 Calm 0.75 Fog/Mist VV002 46 45     93%     30.23        
Sep 20 03:40 Calm 1 Fog/Mist VV002 45 43     93%     30.23        
Sep 20 03:34 Calm 1.75 Fog/Mist CLR 46 44     93%     30.23        
Sep 20 02:53 Calm 8 Clear CLR 46 45     96%     30.23 30.23      
Sep 20 01:53 Calm 10 Clear CLR 48 46     93%     30.25 30.25      
Sep 20 00:53 S 3 10 Clear CLR 50 47     89%     30.26 30.25      
Sep 19 23:53 S 3 10 Clear CLR 50 47     89%     30.26 30.26      
Sep 19 22:53 Calm 10 Clear CLR 50 46     86%     30.26 30.26      
Sep 19 21:53 Calm 10 Clear CLR 53 46     77%     30.26 30.26      
Sep 19 20:53 Calm 10 Clear CLR 55 47     74%     30.27 30.27      
Sep 19 19:53 Calm 10 Clear CLR 57 48     72%     30.28 30.27      
Sep 19 18:53 ESE 3 10 Clear CLR 59 48     67%     30.28 30.28      
Sep 19 17:53 Calm 10 Clear CLR 68 36     31%     30.27 30.27      
Sep 19 16:53 NE 6 10 Clear CLR 69 36     30%     30.28 30.27      
Sep 19 15:53 Calm 10 Clear CLR 69 31     24%     30.29 30.28      
Sep 19 14:53 NNW 5 10 Clear CLR 69 39     33%     30.3 30.3      
Sep 19 13:53 7 10 Clear CLR 66 38     36%     30.32 30.32      
Sep 19 12:53 N 5 10 Clear CLR 64 40     41%     30.33 30.33      
Sep 19 11:53 5 10 Clear CLR 62 40     44%     30.35 30.35      
Sep 19 10:53 NNE 5 10 Clear CLR 59 45     60%     30.37 30.37      
Sep 19 09:53 5 10 Clear CLR 55 45     69%     30.38 30.38      
Sep 19 08:53 NNE 6 10 Clear CLR 49 44     83% 46   30.38 30.38      
Sep 19 07:53 NE 5 10 Clear CLR 46 42     86% 44   30.37 30.37      
Sep 19 07:22 N 3 9 Mostly Clear FEW007 44 41     89% 43   30.36        
Sep 19 06:53 Calm 10 Clear CLR 42 40     92%     30.36 30.35      
Sep 19 05:53 Calm 10 Clear CLR 43 40     89%     30.34 30.34      
Sep 19 04:53 Calm 10 Clear CLR 44 42     93%     30.34 30.34      
Sep 19 03:53 NE 3 10 Clear CLR 44 41     89% 43   30.34 30.34      
Sep 19 02:53 NE 5 10 Clear CLR 46 42     86% 44   30.35 30.34      
Sep 19 01:53 Calm 10 Clear CLR 47 43     86%     30.34 30.34      
Sep 19 00:53 Calm 10 Clear CLR 47 41     80%     30.34 30.34      
Sep 18 23:53 Calm 10 Clear CLR 49 41     74%     30.34 30.34      
Sep 18 22:53 NNW 3 10 Clear CLR 52 41     66%     30.33 30.33      
Sep 18 21:53 Calm 10 Clear CLR 54 41     61%     30.33 30.33      
Sep 18 20:53 Calm 10 Clear CLR 55 42     62%     30.32 30.32      
Sep 18 19:53 Calm 10 Clear CLR 58 43     57%     30.29 30.29      
Sep 18 18:53 NE 6 10 Clear CLR 61 42     50%     30.27 30.27      
Sep 18 17:53 NNE 9 10 Mostly Clear FEW055 64 41     43%     30.28 30.27      
Sep 18 16:53 N 7 10 Mostly Clear FEW055 65 41     42%     30.27 30.27      
Sep 18 15:53 NNE 11 10 Partly Cloudy SCT050 63 42     46%     30.27 30.27      
Sep 18 14:53 NNE 10 10 Partly Cloudy SCT050 65 43     45%     30.27 30.26      
May 15 04:53 S 5 4 Clear   59 58     96%     29.86 29.85      
May 14 13:53 SSE 8 10 Clear CLR 67 55     66%     29.96 29.96      
May 14 04:31 S 3 10 Cloudy BKN012 OVC028 51 48     89%     30.01        
May 12 08:53 N 3 10 Cloudy OVC055 53 37     54%     30.18 30.18      
May 12 01:53 Calm 10 Mostly Clear FEW120 55 35     47%     30.14 30.14      
May 12 00:53 NNE 5 10 Clear CLR 55 37     51%     30.15 30.14      
May 11 21:53 N 5 10 Clear CLR 62 29     28%     30.1 30.1      
May 11 15:53 N 8 10 Clear CLR 69 36     30%     29.99 29.99      
May 11 11:53 NW 13 10 Mostly Clear FEW040 64 38     38%     29.99 29.98      
Jun 11 10:53 5 10 Clear CLR 84 63     49%   85 30.01 30.01      
Jun 10 18:53   10 Clear   79 57     47%   79 29.93 29.93      
Jun 10 12:51 SW 8 10 Mostly Cloudy BKN075 82 55     40%   82 29.95        
Jun 10 08:53 E 3 10 Clear CLR 71 56     59%   71 29.97 29.97      
Jun 09 22:53 S 3 10 Clear CLR 61 55     81%     29.84 29.83      
Jun 08 01:53 Calm 10 Clear CLR 53 50     89%     30.02 30.02      
Jun 07 09:53 NNE 10 10 Cloudy OVC060 59 49     69%     29.99 29.98      
Jun 07 08:53 N 8 10 Cloudy SCT055 BKN070 OVC080 57 50     77%     29.98 29.98      
Jun 06 14:53 N 9 6 Light Rain and Fog/Mist BKN014 OVC019 51 49     92%     29.82 29.82 0    
Notice The following observation data may not be complete
Jun 06 08:11   2.5 Light Rain and Fog/Mist BKN007 OVC014          %         0    
Jun 06 07:49 N 10 2.5 Light Rain and Fog/Mist OVC012 52 48     87%     29.79   0